Weather in Tolparovo

Russia / Republic of Bashkortostan     54°01′37″N   57°06′00″E
temp.,
°C
wind,
m/s
gust,
m/s
humid.,
%
clouds,
%
prec.,
mm/h
press.,
hPa
HPBL,
m
27 february, sat
sat2723:00−20se229366 0.0 102221
02:00−22ese229333 0.0 101948
05:00−20ese3119266 0.0 1017373
08:00−17se41595100 0.3 1012564
11:00−15se41493100 2.3 1010562
14:00−12se51188100 0.4 1007618
17:00−11ese4989100 0.8 1005499
20:00−12ese2694100 0.3 1003269
28 february, sun
sun2823:00−13ese229698 0.5 100277
02:00−12ese229599 0.4 100161
05:00−11ese2296100 0.6 100067
08:00−9ese2296100 0.6 99966
11:00−6ese1294100 1.1 999197
14:00−2e1198100 0.5 1000248
17:00−1n2297100 1.6 1001249
20:00−7wnw229898 0.8 100425
1 march, mon
mon123:00−11w119797 0.9 100821
02:00−12wsw119796 0.3 101021
05:00−13wsw119797 0.6 101220
08:00−15wsw119788 0.2 101420
11:00−11w119090 0.3 1015296
14:00−9wnw2288100 0.2 1016457
17:00−11wnw2292100 0.4 1017369
20:00−16wnw119897 0.1 101822
2 march, tue
tue223:00−19w1110097 0.2 102020
02:00−21wsw1110095 0.1 101920
05:00−22wsw1110098 0.1 102020
08:00−23s129998 0.0 101920
11:00−16ssw239081 0.1 1018256
14:00−11sw248793 0.0 1015490
17:00−12ssw378789 0.0 1014501
20:00−15s4108999 0.0 1013382
3 march, wed
wed323:00−15s4119499 0.1 1013436
02:00−15s3994100 0.3 1010390
05:00−13sse3995100 0.7 1008400
08:00−11sse31095100 0.8 1006443
11:00−7s41093100 1.6 1004603
14:00−3ssw5992100 0.9 1002882
17:00−2ssw4992100 1.6 1001840
20:00−4sse2797100 0.6 1000293